Погода в Бхилваре

Индия     25°21′06″N   74°37′55″E
темп.,
°C
ветер,
м/с
пор.,
м/с
влажн.,
%
обл.,
%
осадки,
мм/ч
давл.,
гПа
погр.,
м
20 апреля, вт
вт2023:30+30зюз331999 0.0 100722
02:30+29зюз4718100 0.0 1006149
05:30+26з3325100 0.0 100654
08:30+30юз2222100 0.0 1008289
11:30+36юз3616100 0.0 10062664
14:30+39юз7810100 0.0 10034494
17:30+35з91016100 0.0 10032961
20:30+31з41018100 0.0 1005270
21 апреля, ср
ср2123:30+27ссз4828100 0.0 1008223
02:30+25ссз1133100 0.0 100711
05:30+24зсз1135100 0.0 100811
08:30+27с2228100 0.0 1011423
11:30+33ююз2418100 0.0 10101903
14:30+36зюз4710100 0.0 10074418
17:30+36юз67838 0.0 10054495
20:30+30з6121899 0.0 1008276
22 апреля, чт
чт2223:30+25ссз233120 0.1 101047
02:30+24с113317 0.0 100911
05:30+23в113330 0.0 101011
08:30+29юв22234 0.0 1011361
11:30+35зсз33130 0.0 10102590
14:30+38сз3480 0.0 10073999
17:30+38зсз3470 0.0 10054683
20:30+31сз49110 0.0 1008143
23 апреля, пт
пт2323:30+28ссв11140 0.0 100811
02:30+26ююз11160 0.0 100711
05:30+25ссз33180 0.0 100819
08:30+32сз33120 0.0 1010407
11:30+37юз2490 0.0 10093321
14:30+39юз4570 0.0 10054519
17:30+39ююз366100 0.0 10035212
20:30+32зсз2310100 0.0 100622
24 апреля, сб
сб2423:30+29зюз45147 0.0 100865
02:30+27зюз3319100 0.0 100635
05:30+26ссв2221100 0.0 100813
08:30+31зсз463322 0.0 1010626
11:30+38зюз3215100 0.0 10092862
14:30+40ююз5495 0.0 10054924
17:30+39ююз55817 0.0 10043651
20:30+33з331164 0.0 100725